OBJECT AK, 63243

Orbit data source: Space-Track

You're viewing an Uncataloged Satellite

Recently launched and/or uncataloged satellites may have evolving metadata. Metadata may include but not limited to: Owner, Maufacturer, Bus, Motor, and Mission.

OBJECT AK, 63243 is a satellite in SSO that was launched on Sat, 15 Mar 2025 UTC via an FALCON 9 launch vehicle from the Air Force Western Test Range (AFWTR). Unknown objects in Earth's orbit typically refer to objects detected orbiting the Earth but have not yet been identified or cataloged. These objects could be anything from previously untracked satellites, spent rocket stages, debris from satellite collisions, or even natural meteoroids temporarily captured by Earth's gravity.

Loading next visibility...
Identifier
63243, 2025-052AK
Orbit
SSO
Last TLE update
2 days ago
Origin
Flag of TBDALBEDO (TBD)
Manufacturer
ALBEDO
Mission
Operational spacecraft
Bus & Motor
ALBEDO, Unknown motor
Mass
530 kg wet, 485 kg dry
Launch date (UTC)
2025-03-15 (2 months ago)
Launch vehicle
FALCON 9
Launch site
Air Force Western Test Range (AFWTR)
Object type
Unknown
Shape & HBR
Unknown
Radar Cross Section
Small (<0.1 m²)

Expand to show TLE details & history

TLE from 2 days ago
0 OBJECT AK
1 63243U 25052AK  25118.68844591  .00018465  00000-0  88433-3 0  9997
2 63243  97.4381  13.2616 0007787 118.0642 242.1381 15.18967356  6886
Epoch: 2025-04-28T16:31Z
Definitive object data (Epoch: 2025-04-28T16:31:21.726Z)
Latitude
-0.00001°
Longitude
-91.4778°
Altitude
514.558 km
Speed
7.605 km/s
True Right ascension
00h 53m 02s
True Declination
0° 00' 00"
Sunlit
Object was in daylight at TLE epoch
Visualization TLE readout
Latitude
71.0546°
Longitude
-111.93872°
Altitude
516.891 km
Speed
7.614 km/s
Apparent Right ascension
05h 16m 56s
Apparent Declination
28° 22' 27"
Sunlit
Object is in daylight
Visualization observer readout
Local Sidereal Time
19:05:48
Azimuth
24.909° NE
Elevation
-17.169°
Doppler factor
1
Orbital elements
Apogee altitude
511.289 km
Perigee altitude
500.568 km
Semi-major axis
6,884.066 km
Eccentricity
0.0007787
Inclination
97.4381°
RAAN
13.2616°
Arg. of periapsis
118.0642°
True anomaly
242.05925°
Mean anomaly
242.1381°
Eccentric anomaly
242.09867°
Mean motion
3.79993 °/min
BSTAR
0.00088433
Orbital period
94.74 mins
Loading maneuver chart data...
Loading SW <> Apogee altitude chart data...
Loading historical data...
Loading historical data...
Loading historical data...
Loading historical data...
Loading historical data...
Loading historical data...
Loading historical data...

OBJECT AK Visibility forecast

Observer location: undefined°, undefined°

Span
Click to sort rows by Start time (UTC) header in descending order
Start Az.
Max El. time (UTC)
Max El. Az.
Max El.
End time (UTC)
End Az.
4 mins2025-04-30 16:06:37.422Z105.576° ESE2025-04-30 16:08:37.422Z66.213° ENE18.265°2025-04-30 16:10:37.422Z28.931° NE
4 mins2025-04-30 17:40:37.422Z225.198° WSW2025-04-30 17:42:37.422Z274.074° WNW22.659°2025-04-30 17:44:37.422Z313.506° NW
4 mins2025-05-01 05:11:37.422Z59.056° ENE2025-05-01 05:12:37.422Z83.608° E24.256°2025-05-01 05:15:37.422Z150.948° SSE
|